Location: Jaite
(41.2884°N, 81.5737°W)
Time: 04:58:24
(UTC+00:00)

Sich 1 Rocket - Pass Details

Date: 15 November 2025
Orbit: 611 x 646 km, 82.5° (Epoch: 04 December)

Event Time Altitude Azimuth Distance (km) Brightness Sun altitude
Rises 11:00:12 0° 357° (N) 2,958 6.9 -14.1°
Reaches altitude 10° 11:02:31 10° 2° (N) 2,040 6.1 -13.7°
Maximum altitude 11:06:57 53° 79° (E) 785 4.5 -12.9°
Drops below altitude 10° 11:11:18 10° 157° (SSE) 2,004 6.7 -12.1°
Sets 11:13:33 0° 162° (SSE) 2,901 7.5 -11.7°
